Weather History for KENW - February, 2013

Change the Weather History Date:

Monday, February 25, 2013

  Actual Average Record
Temperature  
Mean Temperature 26 °F -  
Max Temperature 37 °F 33 °F 61 °F (1976)
Min Temperature 14 °F 18 °F -8 °F (1967)
Degree Days  
Heating Degree Days 40    
Moisture  
Dew Point 21 °F    
Average Humidity 77    
Maximum Humidity 91    
Minimum Humidity 57    
Precipitation  
Precipitation 0.00 in - - ()
Sea Level Pressure  
Sea Level Pressure 30.14 in    
Wind  
Wind Speed 3 mph (East)    
Max Wind Speed 10 mph    
Max Gust Speed -    
Visibility 7 miles    
Events      
Averages and records for this station are not official NWS values.
T = Trace of Precipitation, MM = Missing Value Source: NWS Daily Summary

Daily Weather History Graph

Daily Weather History Graph

Search for Another Location

Airport or City:

Trip Planner

Search our weather history database for the weather conditions in past years. The results will help you decide how hot, cold, wet, or windy it might be!

Date:

Astronomy

Feb. 25, 2013 Rise Set
Actual Time 6:33 AM CST 5:36 PM CST
Civil Twilight 6:04 AM CST 6:05 PM CST
Nautical Twilight 5:32 AM CST 6:37 PM CST
Astronomical Twilight 4:59 AM CST 7:10 PM CST
Moon 5:51 PM CST (2/25) 6:02 AM CST (2/25)
Length of Visible Light 12h 00m
Length of Day
11h 03m
Full, 100% of the Moon is Illuminated
Feb 25
Full
Feb 25
Full
Mar 4
Last Quarter
Mar 11
New
Mar 19
First Quarter

Hourly Weather History & Observations

Time (CST) Temp. Windchill Dew Point Humidity Pressure Visibility Wind Dir Wind Speed Gust Speed Precip Events Conditions
12:11 AM 19.4 °F - 15.8 °F 86% 30.13 in 4.0 mi Calm Calm - N/A   Clear
12:53 AM 15.1 °F 9.4 °F 12.9 °F 91% 30.17 in 3.0 mi WNW 3.5 mph - N/A   Clear
1:53 AM 18.0 °F - 14.0 °F 84% 30.16 in 4.0 mi Calm Calm - N/A   Clear
2:53 AM 16.0 °F - 12.9 °F 88% 30.16 in 4.0 mi Calm Calm - N/A   Clear
3:53 AM 17.1 °F - 12.9 °F 84% 30.17 in 5.0 mi Calm Calm - N/A   Clear
4:53 AM 17.1 °F - 12.0 °F 81% 30.17 in 4.0 mi Calm Calm - N/A   Haze
5:53 AM 14.0 °F 8.2 °F 10.9 °F 88% 30.18 in 4.0 mi West 3.5 mph - N/A   Partly Cloudy
6:53 AM 18.0 °F - 12.9 °F 81% 30.19 in 3.0 mi Calm Calm - N/A   Haze
7:53 AM 21.0 °F - 18.0 °F 88% 30.19 in 10.0 mi Calm Calm - N/A   Clear
8:53 AM 28.0 °F - 24.1 °F 85% 30.19 in 8.0 mi Calm Calm - N/A   Clear
9:53 AM 33.1 °F - 23.0 °F 66% 30.19 in 7.0 mi Calm Calm - N/A   Clear
10:53 AM 36.0 °F 30.3 °F 21.9 °F 57% 30.16 in 9.0 mi ESE 6.9 mph - N/A   Clear
11:53 AM 37.0 °F 31.6 °F 24.1 °F 59% 30.17 in 10.0 mi South 6.9 mph - N/A   Clear
12:53 PM 37.0 °F 31.0 °F 23.0 °F 57% 30.16 in 10.0 mi SE 8.1 mph - N/A   Scattered Clouds
1:53 PM 37.0 °F 31.0 °F 24.1 °F 59% 30.13 in 10.0 mi East 8.1 mph - N/A   Scattered Clouds
2:53 PM 37.0 °F 31.0 °F 24.1 °F 59% 30.13 in 10.0 mi ESE 8.1 mph - N/A   Partly Cloudy
3:53 PM 36.0 °F 29.6 °F 25.0 °F 64% 30.12 in 10.0 mi ESE 8.1 mph - N/A   Clear
4:53 PM 35.1 °F 27.9 °F 26.1 °F 70% 30.11 in 8.0 mi East 9.2 mph - N/A   Clear
5:53 PM 30.9 °F 24.3 °F 25.0 °F 79% 30.11 in 7.0 mi ENE 6.9 mph - N/A   Clear
6:53 PM 28.9 °F 22.8 °F 25.0 °F 85% 30.11 in 7.0 mi ENE 5.8 mph - N/A   Clear
7:53 PM 30.0 °F 23.2 °F 25.0 °F 82% 30.08 in 7.0 mi NE 6.9 mph - N/A   Clear
8:53 PM 30.9 °F 24.3 °F 26.1 °F 82% 30.07 in 9.0 mi ENE 6.9 mph - N/A   Clear
9:53 PM 32.0 °F 24.2 °F 27.0 °F 82% 30.08 in 10.0 mi East 9.2 mph - N/A   Clear
10:53 PM 34.0 °F 27.2 °F 28.0 °F 79% 30.07 in 9.0 mi East 8.1 mph - N/A   Clear
11:53 PM 34.0 °F 26.0 °F 28.0 °F 79% 30.03 in 8.0 mi East 10.4 mph - N/A   Clear